Weather in Novocherkassk

Russia / Rostov Oblast     47°25′19″N   40°05′37″E
temp.,
°C
wind,
m/s
gust,
m/s
humid.,
%
clouds,
%
prec.,
mm/h
press.,
hPa
HPBL,
m
28 november, sun
sun2800:00+5sse33899 0.0 101235
03:00+5sse3394100 0.6 101235
06:00+6sse33934 0.0 101132
09:00+6se22930 0.0 101234
12:00+11s46810 0.0 1011299
15:00+12sse237894 0.0 101174
18:00+10sse3389100 0.1 101225
21:00+10se3793100 2.1 1012164
29 november, mon
mon2900:00+9se41297100 0.9 1011338
03:00+11sse61594100 4.4 1010702
06:00+10sse6148535 0.1 1009458
09:00+10s51493100 0.1 1010461
12:00+14s51479100 0.0 1008655
15:00+14sse61371100 0.1 1006411
18:00+12se4984100 2.4 1004208
21:00+14sse91973100 4.9 1000664
30 november, tue
tue3000:00+15sw122068100 0.4 999953
03:00+12ssw101986100 6.9 9991072
06:00+10wsw101778100 2.4 1001830
09:00+8wsw61378100 2.4 1004654
12:00+9sw7105917 0.0 1004746
15:00+9wsw585813 0.0 1003505
18:00+7ssw1165100 0.0 100111
21:00+8ene1268100 0.1 99840
1 december, wed
wed100:00+6nne4588100 3.0 995232
03:00+2nnw71298100 12.2 996476
06:00+2nw51188100 2.2 1000688
09:00+2wnw6127633 2.3 1005754
12:00+3wsw812655 0.0 10071078
15:00+3wsw71263100 0.0 10081066
18:00+3wsw6136867 0.0 1008718
21:00+3sw61396100 0.4 1008814
2 december, thu
thu200:00+4wsw5118398 0.3 1009554
03:00+3wsw4107927 0.3 1010434
06:00+1wsw39835 0.0 1012285
09:00+2sw288199 0.0 1014291
12:00+6sw6117495 0.0 1014779
15:00+8sw6126316 0.0 1015865
18:00+6ssw511745 0.0 1015290
21:00+7sw7158228 0.0 1015606